Flag for United Kingdom Weather past 2 weeks in West Bromwich, England, United Kingdom

Now
45 °F

Partly sunny.


Feels Like: 39 °F
Forecast: 40 / 47 °F
Wind: 10 mph from West

Location: Birmingham / Airport

Current Time: Dec 20, 2014 at 10:35:44 AM

Latest Report: Dec 20, 2014 at 10:20 AM


Visibility: N/A

Pressure: 30.24 "Hg

Humidity: 76%

Dew point: 37 °F

Location of West BromwichLocation

Historic Weather in West Bromwich — Graph

°F

West Bromwich temperature yesterday

Maximum temperature yesterday: 54 °F (at 12:20 AM)
Minimum temperature yesterday: 43 °F (at 8:50 AM)
Average temperature yesterday: 46 °F

Past Weeks' High & Low Weather Summary

 TemperatureHumidityPressure
High57 °F (Dec 18, 10:20 AM)100% (Dec 5, 11:50 PM)30.36 "Hg (Dec 5, 11:50 PM)
Low28 °F (Dec 13, 7:20 AM)53% (Dec 7, 2:20 PM)29.12 "Hg (Dec 12, 3:50 AM)
Average43 °F82%29.88 "Hg
* Reported Dec 5 9:20 AM — Dec 20 9:20 AM, West Bromwich, Weather by CustomWeather, © 2014

Note: Actual official high and low records may vary slightly from our data, if they occured in-between our weather recording intervals... More about our weather records

Advertising

West Bromwich weather history for previous 24 hours

 ConditionsComfort  
Time TempWeatherWind HumidityBarometerVisibility
9:20 AM
Dec 20
45 °FScattered clouds.10 mph76%30.21 "HgN/A
8:50 AM43 °FPassing clouds.8 mph81%30.21 "HgN/A
8:20 AM43 °FQuite cool.9 mph76%30.21 "HgN/A
7:50 AM45 °FPassing clouds.8 mph71%30.18 "HgN/A
7:20 AM45 °FPassing clouds.8 mph71%30.18 "HgN/A
6:50 AM45 °FPassing clouds.8 mph71%30.15 "HgN/A
6:20 AM45 °FPassing clouds.10 mph71%30.15 "HgN/A
5:50 AM45 °FPassing clouds.13 mph71%30.15 "HgN/A
5:20 AM45 °FPassing clouds.10 mph71%30.15 "HgN/A
4:50 AM45 °FPassing clouds.12 mph71%30.15 "HgN/A
4:20 AM45 °FPassing clouds.9 mph71%30.15 "HgN/A
3:50 AM45 °FPassing clouds.15 mph71%30.15 "HgN/A
3:20 AM45 °FPassing clouds.13 mph71%30.15 "HgN/A
2:50 AM45 °FPassing clouds.13 mph66%30.12 "HgN/A
2:20 AM45 °FPassing clouds.13 mph66%30.12 "HgN/A
1:50 AM43 °FQuite cool.13 mph76%30.12 "HgN/A
1:20 AM43 °FClear.14 mph71%30.12 "Hg10 mi
12:50 AM43 °FClear.16 mph71%30.12 "Hg10 mi
12:20 AM43 °FPassing clouds.15 mph76%30.12 "HgN/A
11:50 PM
Dec 19
43 °FClear.13 mph76%30.12 "Hg10 mi
11:20 PM43 °FClear.12 mph76%30.12 "Hg10 mi
10:50 PM43 °FClear.12 mph76%30.12 "Hg10 mi
10:20 PM43 °FPassing clouds.8 mph76%30.12 "HgN/A
9:50 PM43 °FPassing clouds.10 mph76%30.12 "HgN/A
9:20 PM43 °FClear.12 mph76%30.09 "Hg10 mi
8:50 PM43 °FClear.14 mph76%30.09 "Hg10 mi
8:20 PM43 °FClear.12 mph76%30.09 "Hg10 mi
7:50 PM43 °FClear.9 mph76%30.09 "Hg10 mi
7:20 PM43 °FPassing clouds.8 mph76%30.09 "HgN/A
6:50 PM43 °FClear.12 mph76%30.09 "Hg10 mi
6:20 PM43 °FClear.13 mph71%30.07 "Hg10 mi
5:50 PM43 °FClear.12 mph71%30.07 "Hg10 mi
5:20 PM45 °FClear.14 mph66%30.07 "Hg10 mi
4:50 PM45 °FClear.14 mph66%30.04 "Hg10 mi
4:20 PM45 °FClear.15 mph66%30.04 "Hg10 mi
3:50 PM45 °FPassing clouds.14 mph66%30.01 "HgN/A
3:20 PM46 °FPassing clouds.17 mph62%30.01 "HgN/A
2:50 PM46 °FScattered clouds.14 mph62%29.98 "HgN/A
2:20 PM46 °FScattered clouds.15 mph62%29.98 "HgN/A
1:50 PM46 °FScattered clouds.14 mph62%29.98 "HgN/A
1:20 PM46 °FBroken clouds.13 mph66%29.98 "HgN/A
12:50 PM46 °FScattered clouds.13 mph62%29.98 "HgN/A
12:20 PM46 °FScattered clouds.12 mph66%29.95 "HgN/A
11:50 AM46 °FScattered clouds.14 mph66%29.95 "HgN/A
11:20 AM45 °FPassing clouds.8 mph71%29.95 "HgN/A
10:50 AM45 °FSunny.9 mph71%29.95 "Hg10 mi
10:20 AM45 °FPassing clouds.9 mph71%29.92 "HgN/A
Weather by CustomWeather, © 2014

See weather overviewHow to use our weather pages